Stations météo

réclame
Mon MeteoGroup
Harsfjarden, Suède (2489): Température de l'air & dewpoint: 14.08.2018 01:00:00 - 20.08.2018 01:00:00 (CEST)Harsfjarden, Suède (2489): Vitesse du vent & gusts: 14.08.2018 01:00:00 - 20.08.2018 01:00:00 (CEST)Harsfjarden, Suède (2489): Direction du vent: 14.08.2018 01:00:00 - 20.08.2018 01:00:00 (CEST)Harsfjarden, Suède (2489): reduced air pressure: 14.08.2018 01:00:00 - 20.08.2018 01:00:00 (CEST)Harsfjarden, Suède (2489): visibility: 14.08.2018 01:00:00 - 20.08.2018 01:00:00 (CEST)Harsfjarden, Suède (2489): Quantités de précipitations: 14.08.2018 01:00:00 - 20.08.2018 01:00:00 (CEST)
Date & Time tt [°C] td [°C] ff [km/h] ff [knt] fx [km/h] fx [knt] dd ppp [hPa] vv [km] rr [mm]
20.08.2018 01:00:00 13,7 11,2 0 0 7 4 N 1010,8 40 0,0
20.08.2018 00:00:00 15,3 11,5 4 2 7 4 WNW 1011,1 45 0,0
19.08.2018 23:00:00 14,4 11,4 0 0 4 2 N 1011,3 45 0,0
19.08.2018 22:00:00 14,9 11,5 4 2 4 2 NNW 1011,8 50 0,0
19.08.2018 21:00:00 16,0 10,5 0 0 7 4 N 1012,1 45 0,0
19.08.2018 20:00:00 18,3 9,9 4 2 14 8 WSW 1012,1 50 0,0
19.08.2018 19:00:00 19,8 9,7 7 4 18 10 W 1012,3 45 0,0
19.08.2018 18:00:00 20,1 9,6 11 6 22 12 W 1012,4 45 0,0
19.08.2018 17:00:00 20,6 10,0 14 8 25 14 W 1012,4 45 0,0
19.08.2018 16:00:00 21,0 9,9 14 8 25 14 WSW 1012,3 45 0,0
19.08.2018 15:00:00 21,0 10,5 11 6 32 18 WNW 1012,0 40 0,0
19.08.2018 14:00:00 20,9 9,8 18 10 40 21 W 1012,1 40 0,0
19.08.2018 13:00:00 21,2 10,7 14 8 32 18 W 1011,9 35 0,0
19.08.2018 12:00:00 20,2 10,6 18 10 36 19 WSW 1011,5 35 0,0
19.08.2018 11:00:00 18,9 11,2 18 10 32 18 W 1011,5 40 0,0
19.08.2018 10:00:00 19,8 11,8 18 10 40 21 WSW 1011,4 40 0,0
19.08.2018 09:00:00 18,8 12,1 18 10 36 19 WSW 1011,2 45 0,0
19.08.2018 08:00:00 18,2 12,2 18 10 32 18 WSW 1011,2 30 0,0
19.08.2018 07:00:00 17,6 13,1 14 8 29 16 WNW 1011,0 50 0,0
19.08.2018 06:00:00 17,9 15,0 14 8 29 16 WSW 1010,4 45 0,0
19.08.2018 05:00:00 17,9 15,5 18 10 29 16 SW 1010,0 50 0,0
19.08.2018 04:00:00 17,8 15,4 18 10 29 16 SW 1010,0 50 0,0
19.08.2018 03:00:00 17,6 15,4 18 10 32 18 SW 1010,5 45 0,0
19.08.2018 02:00:00 17,2 15,5 22 12 32 18 SW 1010,6 40 0,1
19.08.2018 01:00:00 17,4 15,4 22 12 36 19 SW 1010,9 28 0,1
19.08.2018 00:00:00 18,5 14,8 18 10 32 18 SSW 1011,1 50 0,0
18.08.2018 23:00:00 17,9 14,8 18 10 32 18 SW 1011,6 45 0,1
18.08.2018 22:00:00 18,3 14,2 18 10 36 19 SSW 1011,9 35 0,1
18.08.2018 21:00:00 19,2 13,8 22 12 32 18 SSW 1012,3 45 0,0
18.08.2018 20:00:00 19,6 14,2 14 8 29 16 SSW 1012,3 45 0,0
18.08.2018 19:00:00 19,3 15,0 22 12 32 18 S 1012,3 45 0,0
18.08.2018 18:00:00 19,5 14,7 22 12 43 23 S 1012,9 45 0,0
18.08.2018 17:00:00 19,3 14,8 29 16 40 21 S 1013,4 45 0,0
18.08.2018 16:00:00 19,0 14,3 29 16 36 19 S 1013,8 45 0,0
18.08.2018 15:00:00 19,9 14,3 22 12 32 18 S 1014,3 40 0,0
18.08.2018 14:00:00 20,1 13,3 22 12 32 18 S 1014,7 40 0,0
18.08.2018 13:00:00 20,5 12,5 18 10 32 18 S 1014,9 45 0,0
18.08.2018 12:00:00 21,1 10,9 18 10 32 18 SW 1015,3 45 0,0
18.08.2018 11:00:00 19,8 12,3 14 8 25 14 SW 1015,9 40 0,0
18.08.2018 10:00:00 19,0 13,8 11 6 22 12 SW 1016,2 40 0,0
18.08.2018 09:00:00 17,8 15,1 7 4 18 10 W 1016,1 40 0,0
18.08.2018 08:00:00 15,7 15,7 7 4 14 8 W 1016,2 40 0,0
18.08.2018 07:00:00 13,1 13,1 4 2 7 4 W 1015,9 27 0,0
18.08.2018 06:00:00 12,0 12,0 4 2 7 4 WSW 1015,8 21 0,0
18.08.2018 05:00:00 11,6 11,6 4 2 4 2 W 1015,7 8 0,0
18.08.2018 04:00:00 12,7 12,7 0 0 4 2 N 1015,5 30 0,0
18.08.2018 03:00:00 13,1 13,1 4 2 7 4 W 1015,6 18 0,0
18.08.2018 02:00:00 14,1 14,1 0 0 4 2 N 1015,4 7 0,0
18.08.2018 01:00:00 15,1 15,1 4 2 4 2 WSW 1015,2 9 0,0
18.08.2018 00:00:00 16,0 16,0 0 0 7 4 N 1014,9 8 0,0
17.08.2018 23:00:00 17,3 17,3 4 2 11 6 SW 1014,6 23 0,1
17.08.2018 22:00:00 17,9 17,9 4 2 11 6 WNW 1014,1 17 0,3
17.08.2018 21:00:00 18,5 18,5 4 2 11 6 SSW 1014,3 15 0,2
17.08.2018 20:00:00 18,7 18,4 7 4 14 8 SSW 1013,6 7 2,0
17.08.2018 19:00:00 19,0 18,2 11 6 25 14 S 1013,2 19 2,0
17.08.2018 18:00:00 21,3 16,9 14 8 29 16 SSW 1013,1 45 0,0
17.08.2018 17:00:00 22,8 17,3 11 6 32 18 SSW 1013,1 45 0,0
17.08.2018 16:00:00 22,3 16,6 18 10 43 23 SW 1013,6 45 0,0
17.08.2018 15:00:00 22,7 16,7 25 14 40 21 SSW 1013,8 45 0,0
17.08.2018 14:00:00 22,4 18,0 25 14 40 21 S 1013,9 40 0,0
17.08.2018 13:00:00 22,0 18,8 22 12 36 19 SSW 1014,7 35 0,0
17.08.2018 12:00:00 21,6 19,0 18 10 40 21 S 1014,9 30 0,0
17.08.2018 11:00:00 21,3 18,9 25 14 40 21 S 1014,9 35 0,0
17.08.2018 10:00:00 21,0 18,8 25 14 36 19 S 1015,0 35 0,0
17.08.2018 09:00:00 20,6 18,4 22 12 32 18 S 1015,1 45 0,0
17.08.2018 08:00:00 20,2 18,3 18 10 29 16 S 1015,1 35 0,0
17.08.2018 07:00:00 19,3 18,3 14 8 25 14 SSW 1015,2 30 0,0
17.08.2018 06:00:00 19,3 17,6 14 8 25 14 S 1015,2 24 0,0
17.08.2018 05:00:00 19,2 17,7 14 8 29 16 SSW 1015,4 14 0,0
17.08.2018 04:00:00 19,0 17,7 18 10 25 14 SSW 1015,2 17 0,0
17.08.2018 03:00:00 18,9 18,1 14 8 25 14 SSW 1015,3 15 0,0
17.08.2018 02:00:00 18,9 18,2 18 10 25 14 S 1015,2 11 0,0
17.08.2018 01:00:00 19,1 18,6 18 10 32 18 SSW 1015,3 13 0,0
17.08.2018 00:00:00 19,2 18,7 22 12 32 18 S 1015,5 15 0,0
16.08.2018 23:00:00 19,3 18,6 18 10 25 14 S 1015,4 15 0,0
16.08.2018 22:00:00 19,4 18,4 18 10 25 14 S 1015,5 21 0,0
16.08.2018 21:00:00 19,4 18,4 18 10 25 14 S 1015,5 28 0,0
16.08.2018 20:00:00 19,6 18,1 14 8 29 16 SSW 1015,5 45 0,0
16.08.2018 19:00:00 19,8 17,9 18 10 29 16 S 1015,5 45 0,0
16.08.2018 18:00:00 20,0 17,8 22 12 32 18 SSW 1015,8 45 0,0
16.08.2018 17:00:00 20,4 17,8 22 12 36 19 SSW 1016,1 45 0,0
16.08.2018 16:00:00 20,9 17,5 22 12 32 18 SSW 1016,0 45 0,0
16.08.2018 15:00:00 21,5 17,3 18 10 32 18 S 1016,3 45 0,0
16.08.2018 14:00:00 21,0 16,2 25 14 32 18 S 1016,5 45 0,0
16.08.2018 13:00:00 21,3 16,0 22 12 32 18 S 1016,4 45 0,0
16.08.2018 12:00:00 21,3 15,6 22 12 29 16 S 1016,4 45 0,0
16.08.2018 11:00:00 21,9 16,4 14 8 22 12 S 1016,5 45 0,0
16.08.2018 10:00:00 20,7 16,1 11 6 18 10 S 1016,6 45 0,0
16.08.2018 09:00:00 20,0 16,2 7 4 11 6 S 1016,4 45 0,0
16.08.2018 08:00:00 18,4 16,6 4 2 11 6 WSW 1016,3 45 0,0
16.08.2018 07:00:00 15,8 15,8 4 2 11 6 WSW 1016,2 45 0,0
16.08.2018 06:00:00 13,7 13,7 4 2 7 4 W 1016,0 45 0,0
16.08.2018 05:00:00 12,7 12,7 0 0 4 2 N 1015,8 45 0,0
16.08.2018 04:00:00 13,8 13,8 0 0 4 2 N 1015,7 40 0,0
16.08.2018 03:00:00 13,2 13,2 0 0 4 2 N 1015,5 45 0,0
16.08.2018 02:00:00 12,8 12,8 4 2 4 2 N 1015,7 40 0,0
16.08.2018 01:00:00 13,6 13,6 4 2 4 2 N 1015,7 45 0,0
16.08.2018 00:00:00 13,7 13,5 0 0 4 2 N 1015,5 50 0,0
15.08.2018 23:00:00 13,9 13,4 0 0 4 2 N 1015,2 45 0,0
15.08.2018 22:00:00 14,5 13,7 0 0 4 2 N 1015,1 50 0,0
15.08.2018 21:00:00 15,4 13,9 0 0 11 6 N 1014,9 45 0,0
15.08.2018 20:00:00 17,1 14,2 7 4 14 8 SSW 1014,3 50 0,0
15.08.2018 19:00:00 17,9 14,0 11 6 18 10 S 1014,1 45 0,0
15.08.2018 18:00:00 18,5 14,8 14 8 18 10 SSW 1013,6 45 0,0
15.08.2018 17:00:00 19,0 13,6 7 4 14 8 SE 1013,3 50 0,0
15.08.2018 16:00:00 18,8 13,9 11 6 14 8 SE 1013,0 45 0,0
15.08.2018 15:00:00 18,5 15,0 11 6 14 8 SE 1012,9 45 0,0
15.08.2018 14:00:00 17,5 14,0 7 4 18 10 ESE 1012,6 45 0,0
15.08.2018 13:00:00 17,6 14,7 7 4 18 10 N 1012,0 45 0,0
15.08.2018 12:00:00 17,0 14,5 11 6 18 10 NNE 1011,5 45 0,0
15.08.2018 11:00:00 16,1 14,6 11 6 22 12 NNE 1011,2 45 0,0
15.08.2018 10:00:00 15,5 14,7 11 6 14 8 NNE 1010,6 45 0,0
15.08.2018 09:00:00 14,8 14,5 7 4 18 10 NNE 1009,8 45 0,1
15.08.2018 08:00:00 14,3 14,1 7 4 18 10 NNE 1009,4 7 0,1
15.08.2018 07:00:00 14,1 13,8 11 6 18 10 N 1009,0 25 0,0
15.08.2018 06:00:00 13,8 13,6 11 6 18 10 N 1008,6 40 0,0
15.08.2018 05:00:00 13,5 13,3 11 6 22 12 N 1008,3 24 0,0
15.08.2018 04:00:00 13,6 13,3 11 6 22 12 N 1008,3 16 0,0
15.08.2018 03:00:00 13,9 13,7 11 6 25 14 N 1008,1 13 0,4
15.08.2018 02:00:00 14,8 14,8 11 6 14 8 N 1008,0 12 1,0
15.08.2018 01:00:00 14,8 14,6 7 4 14 8 N 1008,0 11 1,0
15.08.2018 00:00:00 15,0 14,7 11 6 18 10 N 1008,0 30 0,0
14.08.2018 23:00:00 15,8 14,5 11 6 18 10 NE 1008,0 50 0,0
14.08.2018 22:00:00 16,0 13,7 11 6 18 10 NE 1008,2 50 0,0
14.08.2018 21:00:00 16,1 12,8 7 4 14 8 NNE 1008,5 50 0,0
14.08.2018 20:00:00 16,6 12,6 7 4 14 8 ENE 1008,5 50 0,0
14.08.2018 19:00:00 16,7 12,0 7 4 14 8 ENE 1008,6 50 0,0
14.08.2018 18:00:00 16,5 12,3 7 4 11 6 ENE 1008,9 45 0,0
14.08.2018 17:00:00 15,6 13,4 7 4 14 8 NNE 1009,3 50 0,1
14.08.2018 16:00:00 16,6 12,7 11 6 22 12 SE 1009,7 50 0,0
14.08.2018 15:00:00 17,0 14,5 14 8 25 14 SE 1010,1 45 0,1
14.08.2018 14:00:00 17,6 12,9 11 6 18 10 SE 1010,2 35 0,1
14.08.2018 13:00:00 17,9 13,0 14 8 22 12 SE 1010,2 45 0,0
14.08.2018 12:00:00 18,0 13,3 14 8 18 10 SE 1010,3 50 0,0
14.08.2018 11:00:00 18,3 13,4 11 6 18 10 ESE 1010,5 45 0,0
14.08.2018 10:00:00 19,4 12,9 7 4 11 6 ESE 1010,5 45 0,0
14.08.2018 09:00:00 18,0 13,3 7 4 11 6 E 1010,5 45 0,0
14.08.2018 08:00:00 16,1 13,6 0 0 4 2 N 1010,5 35 0,0
14.08.2018 07:00:00 10,8 10,2 4 2 4 2 NNW 1010,5 50 0,0
14.08.2018 06:00:00 9,3 8,8 4 2 4 2 N 1010,7 50 0,0
14.08.2018 05:00:00 8,8 8,5 4 2 4 2 N 1010,7 50 0,0
14.08.2018 04:00:00 9,2 8,7 4 2 4 2 N 1010,6 45 0,0
14.08.2018 03:00:00 10,2 9,9 4 2 4 2 N 1010,6 45 0,0
14.08.2018 02:00:00 11,2 10,7 0 0 4 2 N 1010,7 45 0,0
14.08.2018 01:00:00 11,2 10,6 0 0 4 2 N 1010,6 50 0,0

tt = Température de l'air
td = dewpoint
ff = Vitesse du vent
fx = gusts
dd = Direction du vent
ppp = reduced air pressure
vv = visibility
rr = Quantités de précipitations

stations d'obs. à proximité